Total_Precipitation_Accumulation
0.30 0.26 0.43 0.47 0.34 0.23 0.13 0.08 0.13 0.12 0.26 0.29 0.27 0.28 0.34 0.30 0.22 0.22 0.21 0.19 0.15 0.11
0.44 0.28 0.26 0.38 0.43 0.35 0.26 0.17 0.13 0.15 0.15 0.27 0.23 0.21 0.24 0.24 0.17 0.15 0.17 0.17 0.15 0.15
0.47 0.44 0.32 0.33 0.37 0.40 0.27 0.29 0.27 0.23 0.23 0.18 0.32 0.18 0.22 0.22 0.16 0.15 0.13 0.16 0.15 0.12
0.38 0.43 0.59 0.74 0.52 0.43 0.36 0.43 0.43 0.31 0.28 0.22 0.22 0.38 0.24 0.21 0.14 0.14 0.14 0.15 0.14 0.12
0.46 0.45 0.46 0.59 0.74 0.48 0.58 0.62 0.62 0.57 0.39 0.35 0.27 0.28 0.42 0.26 0.21 0.13 0.09 0.12 0.16 0.15
0.38 0.40 0.46 0.53 0.64 0.57 0.53 0.58 0.67 0.71 0.59 0.50 0.51 0.41 0.40 0.47 0.26 0.25 0.15 0.08 0.14 0.16
0.32 0.56 0.55 0.55 0.58 0.59 0.54 0.51 0.51 0.55 0.55 0.49 0.55 0.57 0.51 0.52 0.54 0.41 0.36 0.32 0.21 0.21
0.50 0.56 0.50 0.45 0.57 0.57 0.50 0.46 0.46 0.52 0.57 0.50 0.53 0.51 0.49 0.53 0.54 0.59 0.58 0.57 0.53 0.42
0.52 0.38 0.57 0.63 0.77 0.79 0.64 0.47 0.42 0.47 0.60 0.58 0.61 0.66 0.57 0.51 0.48 0.57 0.73 0.73 0.70 0.58
0.62 0.71 0.79 0.59 0.71 0.87 0.66 0.60 0.52 0.53 0.56 0.54 0.56 0.80 0.61 0.58 0.49 0.62 0.70 0.72 0.79 0.84
0.32 0.38 0.54 0.51 0.48 0.62 0.66 0.52 0.58 0.65 0.68 0.69 0.70 0.83 0.71 0.67 0.54 0.59 0.66 0.71 0.74 0.80
0.15 0.31 0.34 0.31 0.36 0.40 0.53 0.60 0.58 0.53 0.54 0.68 0.78 0.94 0.85 0.66 0.58 0.66 0.69 0.69 0.70 0.76
0.05 0.12 0.33 0.30 0.34 0.34 0.26 0.33 0.32 0.35 0.43 0.62 0.78 0.88 0.84 0.74 0.60 0.59 0.63 0.65 0.70 0.79
0.12 0.07 0.12 0.23 0.25 0.35 0.30 0.24 0.25 0.22 0.27 0.34 0.58 0.57 0.63 0.65 0.52 0.45 0.47 0.50 0.55 0.59